TimeEST,TemperatureF,Dew PointF,Humidity,Sea Level PressureIn,VisibilityMPH,Wind Direction,Wind SpeedMPH,Gust SpeedMPH,PrecipitationIn,Events,Conditions,WindDirDegrees,DateUTC
12:15 AM,-9999,-9999,N/A,29.99,10.0,NW,8.1,-,N/A,,Clear,310,2014-02-17 05:15:00
12:35 AM,17.6,-5.8,35,30.01,10.0,NW,5.8,-,N/A,,Clear,310,2014-02-17 05:35:00
12:55 AM,-9999,-9999,N/A,30.02,10.0,NNW,4.6,-,N/A,,Clear,330,2014-02-17 05:55:00
1:15 AM,15.8,-5.8,38,30.03,10.0,NNW,8.1,-,N/A,,Clear,340,2014-02-17 06:15:00
1:35 AM,15.8,-5.8,38,30.03,10.0,NNW,4.6,-,N/A,,Clear,330,2014-02-17 06:35:00
1:55 AM,-9999,-9999,N/A,30.04,10.0,NW,4.6,-,N/A,,Clear,320,2014-02-17 06:55:00
2:15 AM,-9999,-9999,N/A,30.04,10.0,NNW,8.1,-,N/A,,Clear,330,2014-02-17 07:15:00
2:35 AM,-9999,-9999,N/A,30.06,10.0,NNW,5.8,-,N/A,,Clear,330,2014-02-17 07:35:00
2:55 AM,12.2,-7.6,41,30.07,10.0,North,9.2,-,N/A,,Clear,350,2014-02-17 07:55:00
3:15 AM,-9999,-9999,N/A,30.06,10.0,NNW,10.4,-,N/A,,Clear,330,2014-02-17 08:15:00
3:35 AM,-9999,-9999,N/A,30.07,10.0,NW,5.8,-,N/A,,Clear,320,2014-02-17 08:35:00
3:55 AM,10.4,-7.6,44,30.08,10.0,NNW,5.8,-,N/A,,Clear,340,2014-02-17 08:55:00
4:15 AM,8.6,-9.4,44,30.10,10.0,North,5.8,-,N/A,,Clear,360,2014-02-17 09:15:00
4:35 AM,10.4,-5.8,48,30.12,10.0,NW,6.9,-,N/A,,Clear,320,2014-02-17 09:35:00
4:55 AM,10.4,-7.6,44,30.13,10.0,NNW,5.8,-,N/A,,Clear,330,2014-02-17 09:55:00
5:15 AM,10.4,-7.6,44,30.14,10.0,NNW,5.8,-,N/A,,Clear,330,2014-02-17 10:15:00
5:35 AM,10.4,-7.6,44,30.14,10.0,NNW,5.8,-,N/A,,Clear,330,2014-02-17 10:35:00
5:55 AM,10.4,-7.6,44,30.16,10.0,NW,6.9,-,N/A,,Clear,320,2014-02-17 10:55:00
6:15 AM,10.4,-9.4,41,30.16,10.0,NNW,5.8,-,N/A,,Clear,330,2014-02-17 11:15:00
6:35 AM,6.8,-11.2,44,30.16,10.0,North,4.6,-,N/A,,Clear,350,2014-02-17 11:35:00
6:55 AM,6.8,-9.4,48,30.19,10.0,Calm,Calm,-,N/A,,Clear,0,2014-02-17 11:55:00
7:15 AM,6.8,-7.6,52,30.21,10.0,NNW,3.5,-,N/A,,Clear,340,2014-02-17 12:15:00
7:35 AM,8.6,-7.6,48,30.21,10.0,NE,4.6,-,N/A,,Clear,40,2014-02-17 12:35:00
7:55 AM,8.6,-7.6,48,30.22,10.0,NNE,5.8,-,N/A,,Clear,20,2014-02-17 12:55:00
8:15 AM,10.4,-7.6,44,30.23,10.0,NNE,4.6,-,N/A,,Clear,30,2014-02-17 13:15:00
8:35 AM,12.2,-5.8,45,30.24,10.0,North,15.0,-,N/A,,Clear,360,2014-02-17 13:35:00
8:55 AM,12.2,-7.6,41,30.25,10.0,NNW,16.1,24.2,N/A,,Clear,330,2014-02-17 13:55:00
9:15 AM,12.2,-7.6,41,30.25,10.0,North,12.7,20.7,N/A,,Clear,360,2014-02-17 14:15:00
9:35 AM,14.0,-7.6,38,30.25,10.0,North,11.5,17.3,N/A,,Clear,350,2014-02-17 14:35:00
9:55 AM,15.8,-7.6,35,30.25,10.0,NNW,15.0,19.6,N/A,,Clear,340,2014-02-17 14:55:00
10:15 AM,15.8,-7.6,35,30.26,10.0,NNW,12.7,16.1,N/A,,Clear,340,2014-02-17 15:15:00
10:35 AM,17.6,-7.6,32,30.27,10.0,North,9.2,-,N/A,,Clear,350,2014-02-17 15:35:00
10:55 AM,17.6,-5.8,35,30.28,10.0,NNW,8.1,-,N/A,,Clear,340,2014-02-17 15:55:00
11:15 AM,-9999,-9999,N/A,30.27,10.0,North,9.2,-,N/A,,Clear,350,2014-02-17 16:15:00
11:35 AM,19.4,-5.8,33,30.28,10.0,NNW,10.4,16.1,N/A,,Clear,340,2014-02-17 16:35:00
11:55 AM,21.2,-5.8,30,30.27,10.0,North,8.1,-,N/A,,Clear,350,2014-02-17 16:55:00
12:15 PM,-9999,-9999,N/A,30.27,10.0,NNW,16.1,20.7,N/A,,Clear,340,2014-02-17 17:15:00
12:35 PM,21.2,-5.8,30,30.27,10.0,NW,11.5,20.7,N/A,,Clear,320,2014-02-17 17:35:00
12:55 PM,-9999,-9999,N/A,30.27,10.0,NNW,12.7,-,N/A,,Clear,340,2014-02-17 17:55:00
1:15 PM,23.0,-5.8,28,30.28,10.0,North,15.0,23.0,N/A,,Clear,360,2014-02-17 18:15:00
1:35 PM,-9999,-9999,N/A,30.27,10.0,North,18.4,26.5,N/A,,Clear,360,2014-02-17 18:35:00
1:55 PM,23.0,-4.0,31,30.28,10.0,North,11.5,19.6,N/A,,Clear,10,2014-02-17 18:55:00
2:15 PM,23.0,-4.0,31,30.29,10.0,North,11.5,-,N/A,,Clear,350,2014-02-17 19:15:00
2:35 PM,-9999,-9999,N/A,30.29,10.0,NNW,13.8,20.7,N/A,,Clear,340,2014-02-17 19:35:00
2:55 PM,-9999,-9999,N/A,30.30,10.0,North,13.8,17.3,N/A,,Clear,360,2014-02-17 19:55:00
3:15 PM,23.0,-5.8,28,30.31,10.0,North,15.0,19.6,N/A,,Clear,360,2014-02-17 20:15:00
3:35 PM,-9999,-9999,N/A,30.30,10.0,North,15.0,18.4,N/A,,Clear,350,2014-02-17 20:35:00
3:55 PM,-9999,-9999,N/A,30.30,10.0,NNW,6.9,-,N/A,,Clear,330,2014-02-17 20:55:00
4:15 PM,23.0,-5.8,28,30.31,10.0,WNW,4.6,-,N/A,,Clear,300,2014-02-17 21:15:00
4:35 PM,-9999,-9999,N/A,30.31,10.0,NNW,9.2,-,N/A,,Clear,330,2014-02-17 21:35:00
4:55 PM,23.0,-5.8,28,30.32,10.0,NW,6.9,-,N/A,,Clear,320,2014-02-17 21:55:00
5:15 PM,21.2,-7.6,28,30.32,10.0,NNW,5.8,-,N/A,,Clear,330,2014-02-17 22:15:00
5:35 PM,19.4,-9.4,28,30.33,10.0,Calm,Calm,-,N/A,,Clear,0,2014-02-17 22:35:00
5:55 PM,17.6,-5.8,35,30.33,10.0,Calm,Calm,-,N/A,,Clear,0,2014-02-17 22:55:00
6:15 PM,15.8,-4.0,41,30.33,10.0,Calm,Calm,-,N/A,,Clear,0,2014-02-17 23:15:00
6:35 PM,12.2,-5.8,45,30.33,10.0,Calm,Calm,-,N/A,,Clear,0,2014-02-17 23:35:00
6:55 PM,12.2,-2.2,53,30.33,10.0,Calm,Calm,-,N/A,,Clear,0,2014-02-17 23:55:00
7:15 PM,8.6,-5.8,52,30.34,10.0,Calm,Calm,-,N/A,,Clear,0,2014-02-18 00:15:00
7:35 PM,10.4,-0.4,62,30.34,10.0,Calm,Calm,-,N/A,,Clear,0,2014-02-18 00:35:00
7:55 PM,8.6,-4.0,57,30.35,10.0,Calm,Calm,-,N/A,,Clear,0,2014-02-18 00:55:00
8:15 PM,6.8,-5.8,56,30.35,10.0,Calm,Calm,-,N/A,,Clear,0,2014-02-18 01:15:00
8:35 PM,6.8,-4.0,61,30.35,10.0,Calm,Calm,-,N/A,,Clear,0,2014-02-18 01:35:00
8:55 PM,3.2,-7.6,61,30.35,10.0,Calm,Calm,-,N/A,,Clear,0,2014-02-18 01:55:00
9:15 PM,5.0,-4.0,66,30.33,9.0,Calm,Calm,-,N/A,,Clear,0,2014-02-18 02:15:00
9:35 PM,3.2,-5.8,66,30.30,6.0,Calm,Calm,-,N/A,,Clear,0,2014-02-18 02:35:00
9:55 PM,1.4,-9.4,61,30.30,10.0,Calm,Calm,-,N/A,,Clear,0,2014-02-18 02:55:00
10:15 PM,3.2,-4.0,72,30.28,10.0,Calm,Calm,-,N/A,,Clear,0,2014-02-18 03:15:00
10:35 PM,-0.4,-11.2,60,30.30,10.0,Calm,Calm,-,N/A,,Clear,0,2014-02-18 03:35:00
10:55 PM,-0.4,-9.4,66,30.32,10.0,SSW,4.6,-,N/A,,Clear,200,2014-02-18 03:55:00
11:15 PM,1.4,-5.8,72,30.33,10.0,Calm,Calm,-,N/A,,Clear,0,2014-02-18 04:15:00
11:35 PM,-0.4,-7.6,72,30.33,10.0,Calm,Calm,-,N/A,,Clear,0,2014-02-18 04:35:00
11:55 PM,-0.4,-7.6,72,30.33,10.0,Calm,Calm,-,N/A,,Clear,0,2014-02-18 04:55:00